| time (UTC) | temp F | wind direction | speed knots | gust knots | rain 1hr in | rain 24hr in | rain mn in | humidity % | barometer mb |
| 20260505210506 | 58 | 0 | 0.0 | 0.0 | 0.00 | 0.00 | 0.00 | 55 | 1002.1 |
| 20260505205953 | 58 | 0 | 0.0 | 0.0 | 0.00 | 0.00 | 0.00 | 55 | 1002.0 |
| 20260505203344 | 59 | 0 | 0.0 | 0.0 | 0.00 | 0.00 | 0.00 | 52 | 1002.4 |
| 20260505202317 | 60 | 0 | 0.0 | 0.0 | 0.00 | 0.00 | 0.00 | 52 | 1002.3 |
| 20260505201803 | 60 | 0 | 0.0 | 0.0 | 0.00 | 0.00 | 0.00 | 50 | 1002.3 |
| 20260505201249 | 60 | 0 | 0.0 | 0.0 | 0.00 | 0.00 | 0.00 | 50 | 1002.3 |
| 20260505200736 | 61 | 0 | 0.0 | 0.0 | 0.00 | 0.00 | 0.00 | 49 | 1002.3 |
| 20260505200222 | 61 | 0 | 0.0 | 0.0 | 0.00 | 0.00 | 0.00 | 48 | 1002.3 |
| 20260505195154 | 61 | 0 | 0.0 | 0.0 | 0.00 | 0.00 | 0.00 | 47 | 1002.3 |
| 20260505194641 | 62 | 0 | 0.0 | 0.0 | 0.00 | 0.00 | 0.00 | 47 | 1002.3 |
| 20260505192545 | 63 | 0 | 0.0 | 0.0 | 0.00 | 0.00 | 0.00 | 45 | 1002.2 |
| 20260505192031 | 63 | 0 | 0.0 | 0.0 | 0.00 | 0.00 | 0.00 | 45 | 1002.3 |
| 20260505191518 | 64 | 0 | 0.0 | 0.0 | 0.00 | 0.00 | 0.00 | 44 | 1002.3 |
| 20260505191004 | 64 | 0 | 0.0 | 0.0 | 0.00 | 0.00 | 0.00 | 43 | 1002.3 |
| 20260505185421 | 65 | 0 | 0.0 | 0.0 | 0.00 | 0.00 | 0.00 | 42 | 1002.1 |
| 20260505184354 | 66 | 0 | 0.0 | 0.0 | 0.00 | 0.00 | 0.00 | 41 | 1002.1 |
| 20260505183839 | 66 | 0 | 0.0 | 0.0 | 0.00 | 0.00 | 0.00 | 39 | 1002.0 |
| 20260505183325 | 67 | 0 | 0.0 | 0.0 | 0.00 | 0.00 | 0.00 | 37 | 1002.0 |
| 20260505180715 | 69 | 0 | 0.0 | 0.0 | 0.00 | 0.00 | 0.00 | 35 | 1001.8 |
| 20260505174103 | 71 | 0 | 0.0 | 0.0 | 0.00 | 0.00 | 0.00 | 29 | 1001.8 |
| 20260505170936 | 75 | 0 | 0.0 | 0.0 | 0.00 | 0.00 | 0.00 | 25 | 1001.8 |
| 20260505170421 | 76 | 0 | 0.0 | 0.0 | 0.00 | 0.00 | 0.00 | 25 | 1001.9 |
| 20260505164837 | 78 | 0 | 0.0 | 0.0 | 0.00 | 0.00 | 0.00 | 24 | 1001.9 |
| 20260505161707 | 84 | 0 | 0.0 | 0.0 | 0.00 | 0.00 | 0.00 | 21 | 1002.3 |
| 20260505161153 | 85 | 0 | 0.0 | 0.0 | 0.00 | 0.00 | 0.00 | 20 | 1002.2 |
| 20260505152946 | 96 | 0 | 0.0 | 0.0 | 0.00 | 0.00 | 0.00 | 18 | 1002.3 |
| 20260505152430 | 96 | 0 | 0.0 | 0.0 | 0.00 | 0.00 | 0.00 | 18 | 1002.4 |
| 20260505151358 | 96 | 0 | 0.0 | 0.0 | 0.00 | 0.00 | 0.00 | 19 | 1002.5 |
| 20260505150842 | 96 | 0 | 0.0 | 0.0 | 0.00 | 0.00 | 0.00 | 18 | 1002.3 |
| 20260505140532 | 90 | 0 | 0.0 | 0.0 | 0.00 | 0.00 | 0.00 | 25 | 1003.5 |
| 20260505124129 | 79 | 0 | 0.0 | 0.0 | 0.00 | 0.00 | 0.00 | 33 | 1004.3 |
| 20260505123614 | 79 | 0 | 0.0 | 0.0 | 0.00 | 0.00 | 0.00 | 34 | 1004.3 |
| 20260505122031 | 77 | 0 | 0.0 | 0.0 | 0.00 | 0.00 | 0.00 | 35 | 1004.6 |
| 20260505121001 | 77 | 0 | 0.0 | 0.0 | 0.00 | 0.00 | 0.00 | 34 | 1004.5 |
| 20260505114348 | 74 | 0 | 0.0 | 0.0 | 0.00 | 0.00 | 0.00 | 36 | 1004.7 |
| 20260505113319 | 75 | 0 | 0.0 | 0.0 | 0.00 | 0.00 | 0.00 | 37 | 1004.9 |
| 20260505112804 | 74 | 0 | 0.0 | 0.0 | 0.00 | 0.00 | 0.00 | 37 | 1004.9 |
| 20260505110706 | 74 | 0 | 0.0 | 0.0 | 0.00 | 0.00 | 0.00 | 38 | 1005.0 |
| 20260505101956 | 72 | 0 | 0.0 | 0.0 | 0.00 | 0.00 | 0.00 | 39 | 1005.3 |
| 20260505100414 | 71 | 0 | 0.0 | 0.0 | 0.00 | 0.00 | 0.00 | 39 | 1005.4 |
| 20260505095859 | 71 | 0 | 0.0 | 0.0 | 0.00 | 0.00 | 0.00 | 39 | 1005.4 |
| 20260505093802 | 70 | 0 | 0.0 | 0.0 | 0.00 | 0.00 | 0.00 | 41 | 1005.6 |
| 20260505091705 | 69 | 0 | 0.0 | 0.0 | 0.00 | 0.00 | 0.00 | 41 | 1005.6 |
| 20260505091151 | 68 | 0 | 0.0 | 0.0 | 0.00 | 0.00 | 0.00 | 42 | 1005.6 |
| 20260505085608 | 67 | 0 | 0.0 | 0.0 | 0.00 | 0.00 | 0.00 | 42 | 1005.7 |
| 20260505084540 | 67 | 0 | 0.0 | 0.0 | 0.00 | 0.00 | 0.00 | 43 | 1005.7 |
| 20260505083512 | 66 | 0 | 0.0 | 0.0 | 0.00 | 0.00 | 0.00 | 43 | 1005.7 |
| 20260505082958 | 66 | 0 | 0.0 | 0.0 | 0.00 | 0.00 | 0.00 | 43 | 1005.7 |
| 20260505081931 | 65 | 0 | 0.0 | 0.0 | 0.00 | 0.00 | 0.00 | 44 | 1005.8 |
| 20260505075834 | 64 | 0 | 0.0 | 0.0 | 0.00 | 0.00 | 0.00 | 44 | 1006.1 |
| 20260505075320 | 63 | 0 | 0.0 | 0.0 | 0.00 | 0.00 | 0.00 | 45 | 1006.2 |
| 20260505074253 | 63 | 0 | 0.0 | 0.0 | 0.00 | 0.00 | 0.00 | 45 | 1006.1 |
| 20260505073225 | 62 | 0 | 0.0 | 0.0 | 0.00 | 0.00 | 0.00 | 45 | 1006.1 |
| 20260505072711 | 62 | 0 | 0.0 | 0.0 | 0.00 | 0.00 | 0.00 | 45 | 1006.1 |
| 20260505071644 | 61 | 0 | 0.0 | 0.0 | 0.00 | 0.00 | 0.00 | 46 | 1006.2 |
| 20260505064521 | 59 | 0 | 0.0 | 0.0 | 0.00 | 0.00 | 0.00 | 46 | 1006.4 |
| 20260505062426 | 59 | 0 | 0.0 | 0.0 | 0.00 | 0.00 | 0.00 | 46 | 1006.4 |
| 20260505061359 | 59 | 0 | 0.0 | 0.0 | 0.00 | 0.00 | 0.00 | 47 | 1006.4 |
| 20260505060846 | 59 | 0 | 0.0 | 0.0 | 0.00 | 0.00 | 0.00 | 47 | 1006.6 |
| 20260505060332 | 59 | 0 | 0.0 | 0.0 | 0.00 | 0.00 | 0.00 | 47 | 1006.5 |
| 20260505055818 | 58 | 0 | 0.0 | 0.0 | 0.00 | 0.00 | 0.00 | 47 | 1006.4 |
| 20260505055304 | 58 | 0 | 0.0 | 0.0 | 0.00 | 0.00 | 0.00 | 48 | 1006.6 |
| 20260505053724 | 58 | 0 | 0.0 | 0.0 | 0.00 | 0.00 | 0.00 | 49 | 1006.6 |
| 20260505053210 | 57 | 0 | 0.0 | 0.0 | 0.00 | 0.00 | 0.00 | 49 | 1006.6 |
| 20260505050602 | 56 | 0 | 0.0 | 0.0 | 0.00 | 0.00 | 0.00 | 51 | 1006.6 |
| 20260505041348 | 53 | 0 | 0.0 | 0.0 | 0.00 | 0.00 | 0.00 | 52 | 1006.7 |
| 20260505040834 | 53 | 0 | 0.0 | 0.0 | 0.00 | 0.00 | 0.00 | 52 | 1006.6 |
| 20260505040321 | 53 | 0 | 0.0 | 0.0 | 0.00 | 0.00 | 0.00 | 52 | 1006.6 |
| 20260505035808 | 53 | 0 | 0.0 | 0.0 | 0.00 | 0.00 | 0.00 | 52 | 1006.6 |
| 20260505035254 | 53 | 0 | 0.0 | 0.0 | 0.00 | 0.00 | 0.00 | 52 | 1006.6 |
| 20260505030040 | 54 | 0 | 0.0 | 0.0 | 0.00 | 0.00 | 0.00 | 51 | 1007.1 |
| 20260505025014 | 54 | 0 | 0.0 | 0.0 | 0.00 | 0.00 | 0.00 | 51 | 1007.2 |
| 20260505024500 | 54 | 0 | 0.0 | 0.0 | 0.00 | 0.00 | 0.00 | 50 | 1007.3 |
| 20260505022406 | 54 | 0 | 0.0 | 0.0 | 0.00 | 0.00 | 0.00 | 49 | 1007.5 |
| 20260505021339 | 55 | 0 | 0.0 | 0.0 | 0.00 | 0.00 | 0.00 | 49 | 1007.6 |
| 20260505020825 | 55 | 0 | 0.0 | 0.0 | 0.00 | 0.00 | 0.00 | 49 | 1007.6 |
| 20260505020312 | 55 | 0 | 0.0 | 0.0 | 0.00 | 0.00 | 0.00 | 49 | 1007.7 |
| 20260505015758 | 55 | 0 | 0.0 | 0.0 | 0.00 | 0.00 | 0.00 | 48 | 1007.8 |
| 20260505013704 | 56 | 0 | 0.0 | 0.0 | 0.00 | 0.00 | 0.00 | 46 | 1008.0 |
| 20260505013151 | 56 | 0 | 0.0 | 0.0 | 0.00 | 0.00 | 0.00 | 45 | 1007.9 |
| 20260505010543 | 57 | 0 | 0.0 | 0.0 | 0.00 | 0.00 | 0.00 | 45 | 1007.8 |
| 20260505010029 | 57 | 0 | 0.0 | 0.0 | 0.00 | 0.00 | 0.00 | 44 | 1007.8 |
| 20260505005517 | 58 | 0 | 0.0 | 0.0 | 0.00 | 0.00 | 0.00 | 44 | 1007.8 |
| 20260505005002 | 58 | 0 | 0.0 | 0.0 | 0.00 | 0.00 | 0.00 | 44 | 1007.8 |
| 20260505004449 | 58 | 0 | 0.0 | 0.0 | 0.00 | 0.00 | 0.00 | 44 | 1007.9 |
| 20260505003935 | 58 | 0 | 0.0 | 0.0 | 0.00 | 0.00 | 0.00 | 44 | 1007.9 |
| 20260505002354 | 59 | 0 | 0.0 | 0.0 | 0.00 | 0.00 | 0.00 | 44 | 1008.1 |
| 20260504234204 | 59 | 0 | 0.0 | 0.0 | 0.00 | 0.00 | 0.00 | 44 | 1008.5 |
| 20260504233651 | 59 | 0 | 0.0 | 0.0 | 0.00 | 0.00 | 0.00 | 44 | 1008.6 |
| 20260504232624 | 59 | 0 | 0.0 | 0.0 | 0.00 | 0.00 | 0.00 | 44 | 1008.6 |
| 20260504231556 | 59 | 0 | 0.0 | 0.0 | 0.00 | 0.00 | 0.00 | 44 | 1008.7 |
| 20260504230529 | 59 | 0 | 0.0 | 0.0 | 0.00 | 0.00 | 0.00 | 44 | 1008.8 |
| 20260504230015 | 59 | 0 | 0.0 | 0.0 | 0.00 | 0.00 | 0.00 | 44 | 1008.8 |
| 20260504225502 | 59 | 0 | 0.0 | 0.0 | 0.00 | 0.00 | 0.00 | 44 | 1008.9 |
| 20260504224434 | 59 | 0 | 0.0 | 0.0 | 0.00 | 0.00 | 0.00 | 44 | 1009.1 |
| 20260504222339 | 59 | 0 | 0.0 | 0.0 | 0.00 | 0.00 | 0.00 | 44 | 1009.1 |
| 20260504221312 | 59 | 0 | 0.0 | 0.0 | 0.00 | 0.00 | 0.00 | 45 | 1009.1 |
| 20260504220758 | 59 | 0 | 0.0 | 0.0 | 0.00 | 0.00 | 0.00 | 45 | 1009.1 |
| 20260504215731 | 59 | 0 | 0.0 | 0.0 | 0.00 | 0.00 | 0.00 | 44 | 1009.3 |
| 20260504214149 | 60 | 0 | 0.0 | 0.0 | 0.00 | 0.00 | 0.00 | 44 | 1009.4 |
| 20260504213637 | 60 | 0 | 0.0 | 0.0 | 0.00 | 0.00 | 0.00 | 45 | 1009.4 |
| 20260504212055 | 60 | 0 | 0.0 | 0.0 | 0.00 | 0.00 | 0.00 | 44 | 1009.6 |
| 20260504211541 | 60 | 0 | 0.0 | 0.0 | 0.00 | 0.00 | 0.00 | 44 | 1009.6 |